Regional Weather Roundup
Issued by NWS Spokane, WA

Home | Current Version | Previous Version | Text Only | Print | Product List | Glossary On
Versions: 1 2 3 4 5 6 7 8 9 10 11 12 13 14 15 16 17 18 19 20 21 22 23 24 25 26 27 28 29 30 31 32 33 34 35 36 37 38 39 40 41 42 43 44 45 46 47 48 49 50
000
NZUS01 KOTX 011410
RWROTX
EASTERN WASHINGTON/NORTHERN IDAHO ROUNDUP
NATIONAL WEATHER SERVICE, SPOKANE WA
700 AM PDT MON SEP 01 2014

Note: "fair" indicated few or no clouds below 12,000 feet with no
significant weather and/or obstructions to visibility.

...NORTHEAST WASHINGTON AND NORTHERN IDAHO PANHANDLE...

CITY           SKY/WX    TMP DP  RH WIND       PRES   REMARKS
SPOKANE INTL   CLEAR     47  39  74 S5        30.03R
SPOKANE DOWNTO CLEAR     52  41  66 N5        30.05R
COEUR D ALENE  CLEAR     50  39  66 S7        30.04S
DEER PARK      CLEAR     46  38  73 S3        30.04R
SANDPOINT      PTCLDY    45  45 100 CALM      30.03R

...SOUTHEAST WASHINGTON AND SOUTHERN IDAHO PANHANDLE...

CITY           SKY/WX    TMP DP  RH WIND       PRES   REMARKS
WALLA WALLA    CLEAR     58  45  62 S8        30.06R
PULLMAN/MOSCOW CLEAR     47  36  65 CALM      30.08R
LEWISTON       CLOUDY    57  44  62 CALM      30.05R
LOWELL           N/A     50  47  89 N3        30.11R

...COLUMBIA BASIN...

CITY           SKY/WX    TMP DP  RH WIND       PRES   REMARKS
EPHRATA        CLEAR     58  38  47 CALM      30.01R
MOSES LAKE     CLEAR     56  43  61 W7        30.02R
TRI CITIES     CLEAR     50  48  93 CALM      30.04R
HERMISTON      CLEAR     48  45  89 S3        30.05R
PENDLETON      CLEAR     53  45  74 SE6       30.06R

...EAST SLOPES CASCADES...

CITY           SKY/WX    TMP DP  RH WIND       PRES   REMARKS
THE DALLES     CLEAR     52  47  83 CALM      30.06R
YAKIMA         CLEAR     46  40  79 NW5       30.05R
ELLENSBURG     CLEAR     55  43  63 NW9       30.04R
WENATCHEE      CLEAR     59  40  49 N6        30.03R
OMAK           CLEAR     49  38  65 NW6       30.02R

...SOUTHERN BRITISH COLUMBIA...

CITY           SKY/WX    TMP DP  RH WIND       PRES   REMARKS
PENTICTON      MOCLDY    50  41  71 VRB2      30.02R
CASTLEGAR      MOCLDY    48  46  93 NE2       30.03R
CRANBROOK      MOCLDY    48  39  71 W3        29.99S

...WESTERN MONTANA...

CITY           SKY/WX    TMP DP  RH WIND       PRES   REMARKS
MISSOULA       PTCLDY    43  40  89 CALM      30.09R

...NEIGHBORING CITIES...

CITY           SKY/WX    TMP DP  RH WIND       PRES   REMARKS
SEATTLE        MOCLDY    57  51  80 SE7       30.09R
CALGARY        MOSUNNY   45  36  70 S3        29.87S



USA.gov is the U.S. government's official web portal to all federal, state and local government web resources and services.